User: anonymous   Login
Location: Newark
(43.5831°N, 21.3381°E)
Time: 04:11:02
(UTC+00:00)
Language:

STARS - Orbit

View from above orbital plane
View from above orbital plane
View from above satellite
View from above satellite

Ground track
Ground track

The orbit data is extracted from the following two-line orbital elements,

1 33498U 09002G   20058.85870156  .00000139  00000-0  26283-4 0  9991
2 33498  98.2793 280.8792 0012201  75.1462 285.1099 14.79095969597570
Epoch (UTC): 27 February 2020 20:36:31
Eccentricity: 0.0012201
inclination: 98.2793°
perigee height: 623 km
apogee height: 641 km
right ascension of ascending node: 280.8792°
argument of perigee: 75.1462°
revolutions per day: 14.79095969
mean anomaly at epoch: 285.1099°
orbit number at epoch: 59757

The dashed part of the orbit path shows where the satellite is in the earth's shadow,  

DLR